[[{"header":{"parameterUnit":"m.s-1","parameterCategory":1,"la1":30.2991,"la2":30.254,"lo1":-89.0895,"lo2":-89.0444,"dy":0.0017,"dx":0.0017,"nx":28,"ny":28,"refTime":"2024-03-10T21:00:00:Z","depth":0,"parameterNumber":2,"parameterNumberName":"U-component_of_WINDS"},"data":[0,0,0,0,0,0,0,0,0,0,0,0,0,0,0,0,0,0,0,0,0,0,0,0,0,0,0,0,0,0,0,0,0,0,0,0,0,0,0,0,0,0,0,0,0,0,0,0,0,0,0,0,0,0,0,0,0,0,-3.7606,-3.7605,0,-3.7555,-3.7554,-3.7554,-3.7414,-3.7411,-3.7408,-3.7405,-3.7357,-3.7359,-3.736,0,0,0,0,0,0,0,0,0,0,0,0,0,-3.7588,-3.7589,-3.7606,-3.7605,-3.7605,-3.7555,-3.7554,-3.7554,-3.7415,-3.7411,-3.7407,-3.7404,-3.7357,-3.7358,-3.736,0,0,0,0,0,0,0,0,0,0,0,0,0,-3.7573,-3.759,-3.7606,-3.7529,-3.7522,-3.7555,-3.7554,-3.7553,-3.7416,-3.7411,-3.7407,-3.7402,-3.7356,-3.7358,-3.7361,-3.7465,0,0,-3.7368,-3.7369,0,0,0,0,0,0,0,0,-3.7574,-3.7573,-3.7541,-3.7535,-3.7526,-3.7486,-3.753,-3.7524,-3.7417,-3.7456,-3.7405,-3.74,-3.7404,-3.7402,-3.7403,-3.7463,-3.7461,-3.7368,-3.7369,-3.737,-3.7371,0,0,0,0,0,0,0,-3.7575,-3.7575,-3.7586,-3.7541,-3.7532,-3.7499,-3.7492,-3.7528,-3.7456,-3.7452,-3.7442,-3.7438,-3.7399,-3.7401,-3.74,-3.746,-3.7368,-3.737,-3.7371,-3.7372,-3.7606,-3.7611,0,0,0,0,0,0,-3.7586,-3.7577,-3.7587,-3.7584,-3.7539,-3.7503,-3.7495,-3.7504,-3.7455,-3.7444,-3.7442,-3.7431,-3.7399,-3.7398,-3.7398,-3.7519,-3.737,-3.7372,-3.7374,-3.7601,-3.7607,-3.7612,0,0,0,0,0,0,-3.7587,-3.7589,-3.7589,-3.7578,-3.7575,-3.7508,-3.7519,-3.7505,-3.7506,-3.7447,-3.7434,-3.7456,-3.7395,-3.7395,-3.745,-3.7515,-3.7373,-3.7375,-3.7596,-3.7603,-3.761,-3.7761,0,0,0,0,0,0,-3.7587,-3.759,-3.7627,-3.7579,-3.7576,-3.7641,-3.7523,-3.7507,-3.751,-3.7496,-3.7457,-3.7447,-3.7392,-3.7447,-3.7452,-3.7516,-3.7377,-3.7589,-3.7599,-3.7607,-3.775,-3.7772,-3.7791,0,0,0,0,0,-3.7586,-3.7672,-3.763,-3.7632,-3.7622,-3.7645,-3.7643,-3.7577,-3.7516,-3.7555,-3.7517,-3.7448,-3.7507,-3.7454,-3.7458,-3.7524,-3.7585,-3.7596,-3.7607,-3.774,-3.7768,-3.7791,0,0,0,0,0,0,-3.773,-3.7664,-3.7617,-3.7689,-3.7674,-3.7621,-3.7667,-3.7608,-3.7611,-3.7598,-3.7517,-3.7509,-3.7576,-3.7555,-3.7497,-3.7624,-3.7535,-3.7547,-3.7635,-3.7661,-3.7681,-3.7685,-3.7379,0,0,0,0,0,-3.777,-3.7793,-3.7735,-3.7804,-3.7799,-3.7735,-3.7743,-3.7693,-3.7674,-3.7667,-3.7633,-3.7619,-3.7634,-3.7646,-3.7657,-3.7746,-3.7736,-3.7793,-3.7814,-3.7832,-3.7844,-3.7891,-3.7916,-3.7648,-3.7648,-3.7648,0,0,-3.7854,-3.782,-3.784,-3.7833,-3.7814,-3.7842,-3.773,-3.7763,-3.7783,-3.7672,-3.7722,-3.7697,-3.7676,-3.7749,-3.7779,-3.7733,-3.7916,-3.7846,-3.786,-3.7862,-3.7905,-3.7931,-3.7953,-3.7656,-3.7654,-3.7653,0,0,-3.8019,-3.7996,-3.8052,-3.8036,-3.801,-3.7967,-3.7981,-3.7938,-3.7917,-3.7965,-3.7884,-3.7907,-3.7935,-3.7923,-3.7921,-3.8085,-3.8023,-3.8091,-3.8201,-3.8248,-3.827,-3.8288,-3.8348,-3.8371,-3.8103,-3.8103,-3.8103,0,-3.8126,-3.8162,-3.8088,-3.8127,-3.8127,-3.8028,-3.8085,-3.8074,-3.8054,-3.8058,-3.8006,-3.804,-3.8018,-3.8088,-3.8129,-3.813,-3.8145,-3.8095,-3.8272,-3.829,-3.8306,-3.8363,-3.8385,-3.8112,-3.8111,-3.811,-3.8109,0,-3.8296,-3.8322,-3.8371,-3.8353,-3.8359,-3.8407,-3.8343,-3.8358,-3.8309,-3.8272,-3.8324,-3.8295,-3.8299,-3.8312,-3.8264,-3.8376,-3.8349,-3.8286,-3.8196,-3.8341,-3.8393,-3.8414,-3.8124,-3.8121,-3.8118,-3.8116,0,0,-3.8549,-3.8491,-3.8511,-3.8502,-3.8467,-3.8487,-3.8532,-3.8535,-3.855,-3.854,-3.8577,-3.8604,-3.8546,-3.8544,-3.8495,-3.8536,-3.867,-3.8468,-3.8467,-3.8508,-3.8794,-3.8843,-3.8869,-3.8628,-3.8632,-3.8635,-3.8797,0,-3.8707,-3.8778,-3.8715,-3.8799,-3.8824,-3.8731,-3.877,-3.8754,-3.8722,-3.874,-3.8704,-3.8725,-3.8646,-3.8645,-3.8682,-3.8646,-3.8727,-3.8633,-3.8664,-3.8666,-3.8673,-3.8895,-3.8946,-3.9099,-3.8816,-3.8819,-3.8822,0,-3.8899,-3.8898,-3.8985,-3.8946,-3.8954,-3.899,-3.8989,-3.9007,-3.8988,-3.8961,-3.896,-3.89,-3.8943,-3.8854,-3.8914,-3.8852,-3.8861,-3.8846,-3.885,-3.8851,-3.8754,-3.8904,-3.9146,-3.917,-3.8853,-3.885,-3.8848,0,-3.9078,-3.9098,-3.9153,-3.9148,-3.9104,-3.9132,-3.9115,-3.9091,-3.9098,-3.9098,-3.9101,-3.9107,-3.911,-3.9116,-3.906,-3.9,-3.9128,-3.9034,-3.9109,-3.9111,-3.9141,-3.914,-3.939,-3.9145,-3.9145,-3.9144,-3.9144,0,-3.9261,-3.9318,-3.9232,-3.9267,-3.9329,-3.9256,-3.932,-3.9294,-3.9274,-3.9303,-3.9223,-3.9252,-3.9175,-3.9197,-3.9153,-3.9211,-3.9212,-3.9194,-3.9182,-3.9202,-3.9204,-3.9207,-3.9195,-3.915,-3.9149,-3.9148,-3.9147,0,-3.947,-3.9415,-3.9469,-3.9423,-3.9413,-3.9462,-3.9423,-3.9453,-3.9416,-3.9454,-3.9459,-3.9401,-3.9423,-3.9367,-3.938,-3.9351,-3.9434,-3.9404,-3.944,-3.9432,-3.9511,-3.9505,-3.9772,-3.9804,-3.9538,-3.9541,-3.9543,0,-3.9591,-3.9633,-3.9592,-3.9605,-3.9592,-3.9614,-3.9621,-3.9552,-3.9562,-3.9545,-3.9579,-3.9593,-3.9601,-3.9641,-3.9601,-3.9612,-3.9583,-3.9676,-3.9584,-3.9603,-3.9586,-3.9585,-3.9589,-3.9695,-3.9698,-3.9701,-3.9703,0,-3.9812,-3.9783,-3.9794,-3.9798,-3.9808,-3.9807,-3.9801,-3.9817,-3.9743,-3.9759,-3.978,-3.9786,-3.98,-3.9817,-3.9819,-3.9803,-3.9743,-3.9732,-3.975,-3.9772,-3.9792,-3.9784,-3.9494,-3.9727,-3.9724,-3.9722,-3.9721,-3.972,-3.9981,-4.0015,-3.9992,-4.0008,-3.9997,-3.9993,-4.002,-3.9987,-4.0002,-4.0008,-3.9966,-3.9997,-3.9979,-3.9975,-3.9966,-3.999,-3.9948,-3.9974,-3.9981,-3.9989,-4.0003,-3.9787,-3.999,-3.9989,-3.9989,-3.9988,-3.9988,0,-4.0199,-4.018,-4.0196,-4.019,-4.0204,-4.0143,-4.0134,-4.015,-4.0178,-4.0166,-4.0175,-4.0201,-4.0217,-4.018,-4.0191,-4.0217,-4.019,-4.0223,-4.0221,-4.0219,-4.0039,-4.0023,-4.0245,-4.0245,-4.0245,-4.0245,-4.0245,-4.0245,-4.0314,-4.0369,-4.0338,-4.0387,-4.0367,-4.0395,-4.0396,-4.0393,-4.0383,-4.0415,-4.0428,-4.0402,-4.0381,-4.039,-4.0403,-4.0392,-4.04,-4.0444,-4.0423,-4.0256,-4.0231,-4.0207,-4.0191,-4.0446,-4.0446,-4.0601,-4.0602,-4.0603]},{"header":{"parameterUnit":"m.s-1","parameterCategory":1,"la1":30.2991,"la2":30.254,"lo1":-89.0895,"lo2":-89.0444,"dy":0.0017,"dx":0.0017,"nx":28,"ny":28,"refTime":"2024-03-10T21:00:00:Z","depth":0,"parameterNumber":3,"parameterNumberName":"V-component_of_WINDS"},"data":[0,0,0,0,0,0,0,0,0,0,0,0,0,0,0,0,0,0,0,0,0,0,0,0,0,0,0,0,0,0,0,0,0,0,0,0,0,0,0,0,0,0,0,0,0,0,0,0,0,0,0,0,0,0,0,0,0,0,-0.7267,-0.7267,0,-0.7319,-0.732,-0.732,-0.7311,-0.731,-0.7309,-0.7308,-0.7363,-0.7365,-0.7368,0,0,0,0,0,0,0,0,0,0,0,0,0,-0.7158,-0.716,-0.7267,-0.7267,-0.7268,-0.7319,-0.732,-0.732,-0.7311,-0.731,-0.7309,-0.7308,-0.7362,-0.7365,-0.7368,0,0,0,0,0,0,0,0,0,0,0,0,0,-0.7208,-0.7161,-0.7266,-0.7269,-0.727,-0.7319,-0.732,-0.7321,-0.7311,-0.731,-0.7309,-0.7307,-0.7361,-0.7365,-0.7368,-0.7418,0,0,-0.7379,-0.738,0,0,0,0,0,0,0,0,-0.7205,-0.7212,-0.7268,-0.7269,-0.727,-0.7307,-0.7302,-0.7353,-0.7312,-0.7296,-0.7308,-0.7307,-0.7346,-0.735,-0.7363,-0.742,-0.7422,-0.7379,-0.7381,-0.7383,-0.7384,0,0,0,0,0,0,0,-0.7201,-0.7209,-0.7287,-0.7269,-0.727,-0.7268,-0.7274,-0.7311,-0.7328,-0.7297,-0.7297,-0.7303,-0.7346,-0.736,-0.7364,-0.7423,-0.7379,-0.7382,-0.7384,-0.7386,-0.7523,-0.7524,0,0,0,0,0,0,-0.7197,-0.7206,-0.7286,-0.7289,-0.7233,-0.7271,-0.7277,-0.7297,-0.7327,-0.7331,-0.7304,-0.7302,-0.7355,-0.736,-0.7366,-0.7427,-0.7383,-0.7386,-0.7388,-0.7521,-0.7523,-0.7525,0,0,0,0,0,0,-0.7195,-0.7204,-0.7284,-0.7248,-0.7257,-0.7274,-0.7296,-0.7298,-0.7312,-0.7333,-0.7336,-0.7315,-0.7354,-0.7361,-0.7405,-0.7429,-0.7388,-0.7391,-0.752,-0.7522,-0.7524,-0.7547,0,0,0,0,0,0,-0.7192,-0.7203,-0.7223,-0.7248,-0.7259,-0.7321,-0.7298,-0.73,-0.7318,-0.7317,-0.7344,-0.7347,-0.7353,-0.74,-0.7408,-0.7433,-0.7394,-0.7518,-0.7521,-0.7523,-0.7545,-0.755,-0.7555,0,0,0,0,0,-0.7188,-0.7227,-0.7224,-0.7233,-0.7284,-0.7323,-0.7329,-0.7335,-0.732,-0.734,-0.7352,-0.7346,-0.7424,-0.7404,-0.7414,-0.744,-0.7516,-0.752,-0.7523,-0.7542,-0.7549,-0.7555,0,0,0,0,0,0,-0.7205,-0.7231,-0.7227,-0.7276,-0.7297,-0.7321,-0.7346,-0.7342,-0.7368,-0.7366,-0.7372,-0.7378,-0.7422,-0.7435,-0.7412,-0.7489,-0.7468,-0.7474,-0.7479,-0.7486,-0.7491,-0.7488,-0.7396,0,0,0,0,0,-0.7214,-0.7243,-0.7264,-0.7305,-0.7316,-0.7329,-0.7346,-0.7349,-0.7371,-0.738,-0.7396,-0.7418,-0.7448,-0.7467,-0.7495,-0.7545,-0.7552,-0.7568,-0.7573,-0.7577,-0.7583,-0.761,-0.7618,-0.7537,-0.7536,-0.7536,0,0,-0.7234,-0.7251,-0.727,-0.7309,-0.7326,-0.7356,-0.7337,-0.737,-0.7393,-0.7385,-0.7428,-0.744,-0.7465,-0.7512,-0.7533,-0.7524,-0.7606,-0.7581,-0.7585,-0.7588,-0.7615,-0.7623,-0.7629,-0.7539,-0.7538,-0.7538,0,0,-0.7286,-0.7302,-0.7338,-0.7355,-0.738,-0.7388,-0.7397,-0.7421,-0.7429,-0.7471,-0.7466,-0.7493,-0.7543,-0.7561,-0.7577,-0.7634,-0.763,-0.7643,-0.7671,-0.7698,-0.7704,-0.771,-0.7732,-0.7739,-0.7648,-0.7648,-0.7648,0,-0.7308,-0.7353,-0.7357,-0.7391,-0.7408,-0.7402,-0.7438,-0.7454,-0.7488,-0.75,-0.7488,-0.7551,-0.7567,-0.7619,-0.7633,-0.7645,-0.7656,-0.7641,-0.7703,-0.7709,-0.7714,-0.7735,-0.7743,-0.7649,-0.7649,-0.7649,-0.7649,0,-0.7379,-0.7411,-0.7437,-0.7469,-0.7489,-0.7524,-0.7533,-0.7553,-0.7553,-0.7562,-0.7605,-0.7623,-0.7655,-0.7667,-0.7668,-0.7719,-0.7712,-0.7701,-0.7681,-0.7724,-0.7743,-0.7751,-0.7651,-0.7651,-0.765,-0.765,0,0,-0.7446,-0.7478,-0.7488,-0.7502,-0.7529,-0.7554,-0.7588,-0.7618,-0.7636,-0.7658,-0.7687,-0.7729,-0.7719,-0.7737,-0.7739,-0.7763,-0.7808,-0.7749,-0.775,-0.7761,-0.7866,-0.7875,-0.7884,-0.7804,-0.7805,-0.7807,-0.7865,0,-0.7502,-0.7563,-0.7566,-0.7621,-0.7651,-0.7644,-0.7674,-0.7693,-0.7702,-0.7728,-0.7738,-0.7768,-0.7752,-0.7763,-0.7786,-0.7798,-0.7829,-0.7793,-0.7833,-0.7834,-0.7829,-0.7894,-0.7905,-0.7958,-0.7872,-0.7873,-0.7874,0,-0.7576,-0.76,-0.7658,-0.768,-0.7693,-0.772,-0.7748,-0.7772,-0.7794,-0.7799,-0.7818,-0.7816,-0.7852,-0.7828,-0.7877,-0.7852,-0.7868,-0.7876,-0.7878,-0.7884,-0.7858,-0.7904,-0.7976,-0.7984,-0.7886,-0.7885,-0.7884,0,-0.7621,-0.7668,-0.7709,-0.7721,-0.7747,-0.7766,-0.7778,-0.7798,-0.7816,-0.784,-0.7852,-0.788,-0.7896,-0.7917,-0.7923,-0.7905,-0.7972,-0.7949,-0.7978,-0.7978,-0.7995,-0.7994,-0.8072,-0.8001,-0.8001,-0.8001,-0.8001,0,-0.7684,-0.772,-0.7729,-0.7755,-0.7795,-0.7797,-0.7837,-0.7848,-0.7865,-0.7893,-0.7887,-0.7913,-0.7919,-0.7945,-0.795,-0.799,-0.7997,-0.8002,-0.8004,-0.8004,-0.8004,-0.8016,-0.8014,-0.8003,-0.8003,-0.8002,-0.8002,0,-0.7742,-0.7749,-0.7794,-0.7814,-0.782,-0.7849,-0.7867,-0.7891,-0.7898,-0.7933,-0.7941,-0.7953,-0.7984,-0.7991,-0.8028,-0.8031,-0.808,-0.8076,-0.8073,-0.8073,-0.8102,-0.81,-0.8193,-0.8205,-0.8125,-0.8125,-0.8126,0,-0.7783,-0.7811,-0.7834,-0.7852,-0.7864,-0.7893,-0.7911,-0.7914,-0.7933,-0.7959,-0.798,-0.801,-0.8035,-0.8085,-0.8098,-0.8126,-0.8124,-0.8155,-0.8129,-0.8128,-0.8127,-0.8126,-0.8129,-0.8161,-0.8161,-0.8162,-0.8163,0,-0.7856,-0.7857,-0.7884,-0.7911,-0.7932,-0.7954,-0.7975,-0.7989,-0.7995,-0.8017,-0.8048,-0.8067,-0.8105,-0.8135,-0.8163,-0.8176,-0.8171,-0.817,-0.8179,-0.8181,-0.8178,-0.8181,-0.8088,-0.8169,-0.8168,-0.8168,-0.8167,-0.8167,-0.7908,-0.7932,-0.7952,-0.7981,-0.7996,-0.8016,-0.804,-0.8049,-0.8076,-0.8106,-0.8106,-0.8141,-0.8161,-0.8198,-0.8211,-0.8239,-0.8229,-0.8241,-0.8245,-0.8248,-0.8251,-0.8172,-0.8243,-0.8243,-0.8243,-0.8243,-0.8243,0,-0.7981,-0.7993,-0.802,-0.8049,-0.8071,-0.8063,-0.8085,-0.8105,-0.8135,-0.8154,-0.8178,-0.8214,-0.8243,-0.8257,-0.8286,-0.8305,-0.8303,-0.8312,-0.8312,-0.8315,-0.8257,-0.8248,-0.8313,-0.8313,-0.8313,-0.8313,-0.8313,-0.8313,-0.8022,-0.8063,-0.8067,-0.8115,-0.8127,-0.8161,-0.8174,-0.8192,-0.8207,-0.8247,-0.8271,-0.8279,-0.8296,-0.8326,-0.8352,-0.8355,-0.8367,-0.8378,-0.838,-0.8326,-0.8319,-0.8313,-0.8304,-0.838,-0.838,-0.8436,-0.8436,-0.8437]}]]